RH
40 39 39 32 27 20 26 32 26 29 39 37 34 38 37 36 40 42 28 22 19 20 19 25 56 60 68 81 89 91 86 86 88 86 83 82 80 80 78 79 81 80 78 79 80 81 80 80 81
39 40 33 28 27 16 20 24 26 34 37 35 35 36 34 45 32 29 27 20 18 19 19 23 55 57 63 77 84 91 87 92 86 87 86 86 82 81 80 80 82 83 82 81 81 82 83 84 84
43 35 28 24 17 14 22 26 29 30 33 36 39 35 39 45 31 27 21 19 17 17 18 24 51 57 60 70 79 85 89 90 88 87 87 87 84 81 82 82 84 84 85 85 83 83 83 83 82
34 28 27 27 18 28 27 31 31 28 28 27 31 35 35 33 31 24 19 17 17 17 18 30 47 56 61 62 76 80 86 88 90 85 87 87 86 84 85 84 86 86 86 85 83 82 82 83 81
24 25 18 16 24 30 28 29 26 24 21 20 23 28 29 32 28 22 17 17 18 20 22 27 44 52 62 62 66 79 84 87 91 93 85 87 86 86 86 85 88 88 86 84 82 81 81 80 79
23 22 18 14 18 28 26 24 23 18 12 14 18 23 18 26 31 18 16 18 20 22 25 28 41 48 58 61 64 75 84 89 89 92 94 87 87 86 87 87 89 88 87 83 82 81 79 78 78
19 19 22 11 14 18 18 20 15 15 12 10 17 17 11 14 14 14 17 19 22 24 28 30 38 40 51 58 64 72 83 90 89 89 95 87 90 88 88 90 90 88 86 84 82 80 80 79 77
23 21 19 18 15 14 23 20 19 15 12 11 11 12 14 10 13 15 18 22 23 27 31 37 42 44 44 49 64 71 80 89 91 88 90 95 95 94 90 92 90 87 86 85 85 82 80 79 77
23 39 31 18 16 17 24 18 14 14 14 12 12 13 13 14 17 20 22 24 29 35 41 49 52 54 48 46 61 71 82 86 92 87 87 89 86 75 80 81 91 87 84 84 84 82 82 85 85
24 30 19 14 16 17 23 20 16 17 16 15 14 13 14 17 20 24 23 29 38 45 46 48 54 60 61 41 62 71 81 90 92 88 87 90 91 79 74 79 90 89 86 83 75 82 85 80 65
20 35 17 18 23 26 24 20 17 20 23 16 17 17 18 20 22 27 28 30 34 41 43 46 50 58 68 62 61 72 90 95 95 90 93 92 90 94 83 86 79 71 83 64 68 80 66 53 55
26 22 20 20 20 24 26 21 23 21 21 16 18 19 20 20 26 29 31 32 34 38 42 46 46 54 63 72 72 74 89 92 95 96 94 95 96 93 90 87 76 70 68 60 63 70 61 48 48
25 20 18 20 24 25 24 30 29 26 19 17 18 20 19 23 30 29 29 32 32 35 40 44 45 48 54 65 72 78 84 92 94 94 94 95 96 95 93 84 78 71 66 60 61 60 58 50 48
21 24 22 24 26 27 30 28 29 23 19 20 20 19 20 28 30 31 31 33 31 33 38 40 45 44 50 57 66 78 88 91 94 96 94 94 96 96 92 95 85 78 66 62 58 58 57 55 52
27 32 25 28 28 28 30 28 32 24 19 20 18 16 27 27 28 30 32 34 33 33 36 38 43 44 48 53 56 73 87 87 94 95 91 92 94 95 93 94 97 86 66 65 65 58 55 54 51
25 30 38 26 29 28 31 40 20 18 19 21 20 18 28 28 29 29 30 34 33 33 35 38 38 46 48 48 54 58 81 90 93 94 95 91 92 94 96 94 92 92 75 73 71 61 60 56 54
24 36 27 22 25 27 34 41 18 16 17 18 18 19 28 29 30 29 28 31 33 32 34 38 41 45 49 49 51 58 64 84 90 92 94 88 90 96 95 94 93 94 85 80 75 66 58 57 57
21 26 19 20 22 25 28 27 20 15 14 17 19 22 28 32 32 29 27 28 30 32 35 37 39 43 47 50 51 53 55 67 74 91 92 89 92 88 95 94 95 91 95 84 78 69 59 56 55
18 17 20 17 17 27 25 23 18 16 15 18 22 25 29 33 28 28 27 27 31 32 34 37 42 43 48 51 55 56 61 62 73 80 84 89 91 93 96 98 96 94 92 91 80 73 68 60 55
27 32 33 19 22 28 25 24 19 16 21 20 27 29 30 33 27 27 28 28 30 30 33 36 41 45 47 51 52 56 58 59 65 72 78 82 86 91 93 93 96 94 93 93 80 78 77 68 64
36 39 36 34 27 21 24 26 20 29 29 32 32 34 34 34 29 28 28 30 32 32 34 38 43 45 46 48 53 54 54 55 58 65 76 78 78 87 92 94 94 95 95 96 92 79 74 78 70
64 28 31 33 36 43 25 61 23 19 35 35 35 36 37 34 31 32 32 32 32 35 37 39 42 46 43 48 52 55 59 64 62 68 72 74 73 81 86 93 95 95 95 93 93 88 78 76 79
48 35 37 39 36 45 34 51 27 21 31 36 35 32 34 32 32 35 36 39 38 38 42 43 43 45 46 49 51 55 57 56 57 64 66 68 72 74 80 89 95 95 96 93 93 96 82 74 74
37 53 43 51 47 75 45 61 30 39 48 24 27 29 34 37 38 40 49 46 51 46 46 46 46 48 47 48 49 54 57 58 61 64 69 73 73 76 77 80 92 95 96 95 94 95 92 82 70
63 66 78 88 88 62 37 65 60 45 46 30 30 28 35 62 70 70 64 63 71 75 64 55 52 52 48 48 49 52 55 55 58 62 68 72 75 77 78 79 85 92 93 94 95 96 92 94 82
71 70 75 78 63 45 40 63 47 56 52 50 50 54 41 45 76 79 73 69 77 76 75 70 65 60 52 50 53 51 51 54 56 58 62 68 71 73 71 75 79 82 88 93 94 95 95 92 95
74 60 53 64 52 46 44 52 37 37 52 44 54 52 52 47 46 74 83 81 77 83 77 78 75 65 59 56 55 52 49 52 56 55 57 64 66 65 65 69 74 77 84 90 92 95 96 96 94
69 44 64 57 77 69 55 50 42 60 52 61 63 65 64 62 49 55 72 83 85 86 86 82 80 75 65 65 58 52 53 52 53 54 57 60 61 63 66 68 69 72 77 86 92 94 95 95 95
55 50 64 69 51 69 61 46 69 53 65 65 70 70 71 71 70 65 59 71 80 87 91 89 87 83 75 65 69 60 56 54 53 54 55 56 60 61 63 65 67 69 73 80 89 92 96 97 94
63 51 63 54 73 61 66 56 47 42 51 54 57 83 75 76 76 74 65 63 69 80 88 90 88 90 88 76 68 68 59 54 54 54 54 55 58 60 61 62 65 67 69 76 85 92 95 98 96
Wind_Speed
8 5 3 4 4 5 5 4 3 5 4 7 6 6 10 13 9 6 5 14 18 17 18 20 28 30 30 31 30 26 15 12 11 10 12 12 11 10 9 10 10 12 12 13 16 17 17 17 17
6 3 3 1 5 5 7 3 3 7 7 6 3 8 2 6 7 7 4 16 17 17 17 19 27 28 29 29 30 29 23 21 13 12 13 12 12 12 10 10 12 13 15 15 17 17 18 18 16
2 4 3 2 3 6 5 2 5 3 5 8 3 4 5 4 7 4 12 16 17 17 17 18 24 26 27 26 28 29 27 25 16 14 14 13 13 13 12 12 12 13 14 15 16 16 17 18 16
2 3 3 6 8 5 6 5 2 1 3 6 6 7 5 3 3 7 14 16 17 18 17 18 22 23 25 26 26 27 27 29 28 17 15 14 14 14 12 12 11 11 16 16 15 16 16 15 16
2 3 2 2 7 6 5 3 5 4 3 6 9 4 7 7 4 9 17 17 17 17 15 16 19 21 22 24 24 24 27 28 30 28 18 16 16 15 13 12 12 12 15 15 15 15 15 15 14
1 3 3 4 6 6 3 3 5 5 5 6 6 9 6 10 4 15 17 17 16 15 15 14 15 18 19 21 23 24 24 26 31 30 23 20 18 16 14 14 14 15 14 15 15 15 14 12 13
2 3 4 3 5 4 1 3 4 7 7 5 6 7 7 6 14 18 15 15 14 14 14 14 14 15 17 18 21 22 22 23 27 30 21 17 17 17 16 16 17 16 15 14 13 13 14 12 12
1 2 4 1 4 3 2 2 4 7 7 7 3 4 5 17 20 16 13 11 11 12 13 15 14 15 13 13 17 20 21 22 27 29 30 31 13 13 15 16 17 17 16 15 14 13 14 12 11
2 2 3 3 3 3 4 4 1 5 11 10 9 11 14 13 13 13 12 11 12 11 13 14 15 15 15 12 12 16 17 19 21 21 27 22 10 14 16 17 16 17 16 15 15 14 14 12 10
4 2 3 3 3 1 3 6 9 7 9 10 10 7 6 9 11 12 12 11 11 13 13 12 14 15 15 10 11 11 10 7 8 11 15 13 15 13 13 14 16 15 15 14 13 14 16 11 7
3 3 3 3 1 1 5 9 9 9 9 6 6 9 9 11 11 11 11 11 11 11 10 13 13 14 14 13 9 5 5 6 6 10 13 13 12 14 9 8 9 11 12 9 11 11 8 11 8
4 3 1 1 1 3 7 7 9 14 16 7 7 7 9 10 9 11 11 11 11 11 11 12 13 12 12 10 9 8 5 4 4 6 14 9 8 13 15 8 10 10 9 12 10 7 8 10 10
6 2 2 2 4 8 10 13 13 16 12 11 8 6 9 7 8 11 10 10 11 11 11 12 12 12 11 10 9 9 8 4 5 3 5 6 8 10 12 7 9 9 11 10 10 9 10 9 9
2 2 5 3 5 7 9 12 4 6 5 8 8 10 7 6 8 11 11 11 10 10 11 12 12 12 12 10 11 8 7 8 5 4 3 4 5 7 11 13 8 9 11 9 11 10 9 8 8
1 3 4 7 5 4 7 14 16 12 7 7 9 10 4 9 7 9 9 9 10 9 11 12 11 12 12 13 11 8 8 8 8 4 4 4 7 7 9 11 10 10 11 10 8 11 8 8 8
3 3 3 8 4 2 3 6 9 9 7 10 12 12 5 9 6 5 6 8 8 10 11 11 10 12 13 12 11 9 8 7 7 7 5 6 10 9 7 8 12 16 10 9 10 10 9 8 8
3 5 3 3 7 3 5 10 5 9 13 15 11 10 6 7 5 3 6 7 8 9 10 11 11 11 13 13 10 10 11 6 4 5 6 3 4 8 4 9 10 13 7 9 10 10 11 9 8
4 5 2 7 6 9 15 26 22 17 14 15 9 7 7 6 3 5 7 7 8 9 9 10 9 11 12 10 9 8 8 8 8 4 5 8 6 5 8 7 9 12 11 11 10 12 11 10 9
5 7 12 13 3 8 13 21 24 18 15 12 9 9 7 6 1 3 5 6 7 7 8 10 11 11 10 8 9 9 9 10 9 8 10 9 7 8 8 4 7 10 9 11 14 11 15 11 11
3 8 11 9 2 7 15 27 27 16 6 9 10 9 8 6 4 3 3 5 7 8 9 10 11 11 9 8 9 9 9 8 10 9 8 9 10 10 8 10 7 9 10 14 14 14 10 9 12
6 9 9 8 13 16 14 17 8 4 5 6 8 8 7 8 6 4 3 5 7 8 10 10 11 11 10 10 9 8 9 8 7 7 8 8 11 9 9 9 9 9 7 8 11 15 16 13 12
4 4 3 7 9 6 10 10 11 9 10 12 12 12 12 10 8 5 4 4 6 8 9 10 10 11 9 11 9 12 10 10 10 9 9 10 10 9 9 10 10 9 6 10 13 11 15 15 16
2 2 3 6 9 11 4 6 7 4 9 15 15 15 13 10 8 6 4 3 5 7 8 9 10 10 11 10 10 9 11 10 10 9 13 13 11 11 10 10 10 9 5 9 16 8 13 15 15
7 1 3 3 2 5 6 5 7 5 4 7 13 14 12 11 9 6 4 4 4 6 7 8 10 10 10 10 10 11 12 13 11 11 11 9 9 9 10 9 9 10 7 7 11 12 14 12 15
3 3 3 4 4 5 6 6 12 4 5 6 10 11 12 9 8 7 7 5 4 4 6 7 9 10 10 11 10 10 11 13 14 13 10 13 10 10 11 11 11 10 10 11 10 13 14 12 14
9 3 4 7 7 7 6 11 7 1 2 7 5 4 9 13 10 9 8 7 5 4 5 6 8 9 10 10 10 9 10 8 9 11 11 10 10 10 13 12 12 12 12 12 10 11 11 14 11
8 7 3 4 2 6 8 7 14 12 12 9 11 13 14 14 13 10 8 8 6 4 5 5 7 8 9 10 10 10 9 10 10 14 13 10 12 11 13 14 14 14 13 12 12 12 14 12 12
3 5 4 4 6 9 9 12 13 4 7 11 14 16 15 13 14 11 9 8 6 5 5 5 6 8 9 9 9 9 11 11 11 11 14 13 13 14 14 14 13 14 14 12 12 13 13 16 11
7 6 5 3 5 6 9 8 5 7 7 11 12 14 13 14 13 12 10 8 7 6 5 5 5 6 8 9 9 11 11 12 12 11 12 14 13 14 14 14 14 14 15 13 13 15 11 15 16
10 9 13 7 9 6 5 15 6 9 7 7 7 7 10 11 12 11 10 9 9 8 6 5 4 4 6 8 10 10 12 12 12 12 14 15 15 14 15 15 14 14 15 15 13 14 13 11 15
Wind_Direction
293 327 286 239 225 243 115 108 57 96 105 21 342 336 334 27 9 22 85 7 356 360 2 8 4 6 6 4 4 1 322 243 213 200 187 181 173 170 166 158 147 126 121 119 115 109 102 98 95
344 278 226 216 248 204 108 84 107 57 43 335 342 324 295 73 20 82 49 359 357 357 1 7 1 6 6 3 4 2 354 335 231 209 196 189 177 178 179 168 146 134 126 125 113 108 108 98 92
354 306 243 241 279 37 97 88 55 61 65 30 14 345 357 55 51 48 10 355 353 357 358 4 1 4 7 4 2 0 358 352 291 220 201 190 181 182 183 178 157 137 128 121 120 119 110 111 109
252 204 162 247 98 53 92 106 348 329 135 56 8 276 123 53 55 32 1 355 351 350 359 357 2 2 7 7 0 359 357 355 343 243 210 192 183 185 185 180 156 139 128 126 130 125 120 117 120
297 248 188 145 90 114 73 27 350 317 330 349 352 288 320 151 128 22 357 350 351 349 0 355 1 1 4 5 4 355 358 356 348 337 217 198 188 187 183 173 148 140 134 138 139 130 126 125 127
206 294 195 196 118 102 98 345 319 297 326 338 324 333 288 86 261 9 350 342 348 350 353 355 357 360 2 1 2 358 356 360 349 342 323 204 191 187 179 167 150 145 142 146 146 139 134 132 136
342 284 52 56 126 165 103 330 304 336 308 342 354 297 305 283 9 354 341 334 343 351 355 352 352 353 358 359 359 357 355 3 354 348 341 243 200 188 179 163 157 154 153 151 146 142 131 142 138
21 319 131 63 199 125 141 295 331 305 307 0 310 257 295 341 343 330 332 336 349 358 5 356 356 346 352 349 357 355 353 4 4 346 354 339 216 194 179 166 164 159 154 152 147 147 141 145 139
301 92 138 155 185 117 144 260 242 288 283 285 285 285 298 332 331 328 334 354 3 2 12 1 350 347 340 338 356 351 356 359 5 348 353 349 268 201 183 186 163 165 162 155 155 144 138 127 124
340 134 99 34 48 224 199 269 297 285 273 260 255 268 330 326 327 340 343 354 359 354 354 2 351 348 338 331 350 352 346 355 14 349 355 335 331 258 199 187 159 163 156 157 162 147 132 151 153
29 71 95 124 75 328 279 274 259 266 270 251 301 309 320 324 343 346 339 347 350 345 345 352 350 346 347 343 340 347 339 341 9 0 6 343 337 340 195 177 163 169 164 165 161 141 168 188 165
103 94 84 84 181 251 259 297 265 251 256 286 298 310 313 322 332 335 336 337 335 339 342 344 347 343 348 333 340 332 331 343 333 16 1 341 1 346 307 167 176 174 178 179 176 170 196 188 174
101 167 225 254 272 266 269 259 270 269 257 254 256 267 293 341 324 321 328 324 328 335 338 342 341 344 339 337 332 323 323 326 308 4 352 341 342 341 321 237 180 177 180 181 171 174 198 185 180
69 260 277 279 257 263 261 269 271 260 215 225 240 274 342 329 312 310 318 321 327 332 337 336 340 339 335 332 326 319 313 328 285 270 144 69 346 341 344 339 186 190 182 186 169 174 193 173 179
105 280 198 226 226 273 311 254 227 241 193 245 262 281 282 295 301 302 309 316 326 329 335 338 334 336 334 329 326 318 320 321 306 265 61 44 346 322 354 327 326 245 182 170 157 172 169 176 172
218 216 279 144 197 174 319 284 196 187 224 264 275 284 294 287 299 305 316 319 331 335 333 330 334 332 331 328 319 320 311 312 329 336 338 36 359 329 8 315 327 318 179 167 164 174 166 176 178
197 297 279 248 183 283 225 278 252 197 253 265 281 271 266 276 263 301 318 326 335 333 332 330 335 335 335 323 317 316 307 313 330 325 312 328 296 311 355 339 312 320 214 172 171 172 172 173 176
314 303 279 276 171 241 273 266 269 270 273 274 260 247 237 246 274 324 331 332 338 339 330 331 334 338 336 326 320 324 314 319 324 308 295 344 336 327 314 288 326 317 329 174 180 172 176 173 167
321 294 287 292 9 296 265 279 283 283 275 256 229 218 225 231 265 301 322 330 335 338 337 340 336 342 338 336 335 331 322 324 315 331 317 323 322 309 278 330 306 305 305 279 171 175 170 173 161
271 292 288 297 35 284 292 292 286 283 232 216 203 204 213 221 222 234 302 332 339 337 345 340 341 339 340 333 330 318 312 308 308 310 326 333 333 331 321 321 303 327 315 325 187 177 171 169 153
250 260 296 292 317 268 310 274 195 138 178 192 205 207 207 222 229 243 302 332 334 343 345 339 336 336 336 339 323 318 311 309 313 324 321 324 312 312 302 289 298 294 302 304 260 177 178 158 170
276 19 275 285 320 306 26 292 274 181 193 209 206 207 211 205 209 233 275 312 338 341 337 334 333 332 334 336 331 327 318 319 322 319 312 301 301 307 292 291 295 278 299 293 301 221 173 168 171
3 20 308 302 286 318 191 244 263 139 230 217 211 207 204 202 206 223 252 297 325 333 336 331 330 333 336 335 332 325 320 317 315 309 308 307 309 302 303 303 300 284 274 283 295 216 209 180 175
109 304 258 267 273 243 176 233 263 219 207 198 194 202 199 198 205 219 232 254 296 329 328 329 329 331 333 330 331 328 323 317 311 314 310 307 307 304 308 316 314 312 284 263 302 228 220 212 188
157 251 268 220 205 280 152 215 260 246 202 209 191 196 195 184 201 218 227 241 256 289 311 322 327 326 330 328 331 330 321 317 310 313 308 309 309 310 309 322 312 309 303 307 295 254 209 217 226
188 258 263 279 291 311 147 240 250 147 28 207 217 224 196 200 206 217 220 227 233 253 291 309 317 317 323 326 327 327 322 316 313 307 305 300 301 303 310 303 299 296 306 302 290 277 224 212 209
146 205 41 295 194 275 238 242 273 235 213 205 217 219 220 213 213 206 205 216 227 230 259 285 303 308 316 319 320 322 323 317 311 307 305 300 295 299 298 300 299 296 296 290 285 280 230 213 203
248 121 135 197 259 260 237 255 252 212 220 212 214 219 217 214 219 207 201 203 206 219 238 262 280 297 308 314 318 318 319 317 313 307 303 302 302 298 299 302 299 297 294 293 286 280 234 214 203
166 207 210 296 251 256 293 257 163 207 217 203 213 220 212 207 207 204 207 196 200 207 219 238 255 287 302 312 315 317 319 319 316 311 307 304 301 300 300 300 300 298 293 287 286 292 231 225 205
241 226 184 214 190 235 290 268 200 195 201 210 220 204 212 210 203 195 200 202 211 217 211 228 250 262 285 304 311 315 315 319 318 315 312 308 304 302 299 297 293 291 286 284 286 279 250 219 222